www.pogodaiklimat.ru

Погода и климат >> Архив погоды >> Индия >> Amritsar


ПОГОДА в Amritsar

  • Прогноз погоды в Amritsar
  • Монитор погоды в Amritsar
  • Климат города

АРХИВ ПОГОДЫ в Amritsar

Время (UTC), дата Ветер
(напр.,м/с)
 
Видим.   Явления Облачность Т
(С)
Тd
(С)
f
(%)
Тe
(С)
Тes
(С)
Комфортность P
(гПа)
Po
(гПа)
Тmin
(С)
Tmax
(С)
R
(мм)
R24
(мм)
S
(см)
09 11.08 нст 2 4000 м 8/4 1050 м
[Sc diur, vesp Ac trans]
+35.0 +27.9 67 +56 +62 опасность
перегрева
996.1 996.0
12 11.08 Ю 3 4000 м 5/5 1000 м
[Sc diur, vesp]
+34.0 +28.6 74 +57 +58 опасность
перегрева
994.7 995.0 +36.6
15 11.08 штиль 0 4000 м дымка 8/4 900 м
[Sc diur, vesp Ac As]
+32.0 +29.3 86 +56 +56 опасность
перегрева
996.6 997.0
18 11.08 штиль 0 2000 м дымка 8/4 900 м
[Sc diur, vesp Ac As]
+30.8 +30.8 100 +60 +60 опасность
перегрева
996.1 996.0
21 11.08 штиль 0 2000 м дымка 8/4 900 м
[Sc diur, vesp Ac As]
+30.5 +30.5 100 +58 +58 опасность
перегрева
996.0 996.0
00 12.08 штиль 0 2000 м дымка 10/5 900 м
[Cb cap As op]
+30.0 +30.0 100 +55 +55 опасность
перегрева
995.5 996.0
03 12.08 ЮЗ 4 4000 м дымка 6/3 1200 м
[Sc diur, vesp Ac trans]
+31.4 +30.6 96 +60 +63 опасность
перегрева
996.2 996.0 +28.7 +36.6
06 12.08 ЮЗ 4 4000 м 8/4 1050 м
[Sc diur, vesp Ac trans]
+33.6 +28.5 75 +56 +60 опасность
перегрева
997.0 997.0
09 12.08 ЮЗ 3 4000 м 9/4 900 м
[Sc diur, vesp Ac As]
+34.6 +28.1 69 +56 +59 опасность
перегрева
995.7 996.0
12 12.08 Ю 4 4000 м 6/4 1050 м
[Cb calv Ac trans]
+34.2 +28.5 72 +56 +57 опасность
перегрева
995.0 995.0 +36.0
15 12.08 Ю 3 4000 м дымка 8/4 1050 м
[Sc diur, vesp Ac trans]
+31.8 +31.8 100 +65 +65 опасность
перегрева
996.2 996.0
18 12.08 нст 1 4000 м дымка 8/4 1200 м
[Sc diur, vesp Ac trans]
+30.7 +30.7 100 +59 +59 опасность
перегрева
996.8 997.0
21 12.08 штиль 0 4000 м дымка 6/4 1200 м
[Sc diur, vesp Ac trans]
+29.9 +29.9 100 +55 +55 опасность
перегрева
996.3 996.0
00 13.08 штиль 0 2000 м дымка 6/3 1200 м
[Sc diur, vesp Ac trans]
+29.1 +29.1 100 +51 +51 опасность
перегрева
996.8 997.0
03 13.08 ЮЗ 4 4000 м дымка 5/3 1200 м
[Sc diur, vesp Ac trans]
+30.0 +30.0 100 +55 +58 опасность
перегрева
998.8 999.0 +28.4 +36.0
06 13.08 ЮЗ 3 4000 м дымка 5/3 1200 м
[Sc diur, vesp Ac trans]
+33.9 +29.8 79 +60 +69 опасность
перегрева
999.1 999.0
09 13.08 Ю 4 4000 м мгла 8/4 1200 м
[Sc diur, vesp Ac trans]
+35.2 +28.2 67 +56 +60 опасность
перегрева
997.8 998.0
12 13.08 Ю 5 4000 м дымка 8/4 1200 м
[Sc diur, vesp Ac trans]
+33.8 +28.7 75 +57 +57 опасность
перегрева
997.1 997.0 +35.8
15 13.08 штиль 0 4000 м дымка 8/5 1050 м
[Cb cap Ac trans]
+31.2 +31.2 100 +62 +62 опасность
перегрева
1000.7 1001.0
18 13.08 С 6 2000 м слабый дождь 10/5 1050 м
[Cb cap As op]
+24.4 +24.4 100 +34 +34 очень
душно
1004.8 1005.0 11
21 13.08 В 4 2000 м слабый дождь 10/4 1200 м
[Sc diur, vesp As op]
+24.0 +24.0 100 +33 +33 очень
душно
1002.5 1003.0 20
00 14.08 штиль 0 4000 м дымка {дождь} 5/3 1050 м
[Sc diur, vesp Ac trans]
+24.2 +24.2 100 +33 +33 очень
душно
1002.4 1002.0 20
03 14.08 СЗ 4 4000 м дымка 9/4 1050 м
[Sc diur, vesp Ac As]
+24.2 +24.2 100 +33 +34 очень
душно
1005.6 1006.0 +23.4 +35.8 20
06 14.08 В 4 4000 м 6/3 1200 м
[Sc diur, vesp Ac trans]
+28.4 +28.4 100 +48 +55 опасность
перегрева
1004.2 1004.0
09 14.08 нст 1 4000 м 6/3 1200 м
[Sc diur, vesp Ac trans]
+32.0 +29.0 84 +55 +65 опасность
перегрева
1003.3 1003.0
12 14.08 штиль 0 4000 м дымка 6/3 1200 м
[Sc diur, vesp Ac trans]
+32.0 +29.0 84 +55 +57 опасность
перегрева
1002.2 1002.0 +33.0
15 14.08 штиль 0 4000 м дымка 6/3 1200 м
[Sc diur, vesp Ac trans]
+29.4 +29.4 100 +53 +53 опасность
перегрева
1003.3 1003.0
18 14.08 нст 1 4000 м дымка 6/3 1200 м
[Sc diur, vesp Ac trans]
+28.4 +28.4 100 +48 +48 опасность
перегрева
1003.9 1004.0
21 14.08 штиль 0 2000 м дымка 4/4 1200 м
[Sc diur, vesp]
+27.6 +27.6 100 +45 +45 опасность
перегрева
1002.9 1003.0
00 15.08 штиль 0 2000 м дымка 3/3 1200 м
[Sc diur, vesp]
+27.2 +27.2 100 +43 +43 опасность
перегрева
1003.0 1003.0
03 15.08 СЗ 3 2000 м дымка 3/3 1200 м
[Sc diur, vesp]
+28.6 +28.6 100 +49 +53 опасность
перегрева
1004.1 1004.0 +26.8 +33.0
06 15.08 нст 2 4000 м дымка 5/3 1200 м
[Sc diur, vesp Ac trans]
+32.0 +29.0 84 +55 +67 опасность
перегрева
1003.8 1004.0
09 15.08 З 3 4000 м дымка 5/3 1200 м
[Sc diur, vesp Ac trans]
+32.6 +28.8 80 +55 +63 опасность
перегрева
1001.8 1002.0
12 15.08 З 2 4000 м ясно +32.4 +26.6 72 +50 +52 опасность
перегрева
1000.0 1000.0 +33.4
15 15.08 нст 1 4000 м дымка 3/3 1200 м
[Sc diur, vesp]
+30.0 +30.0 100 +55 +55 опасность
перегрева
1000.4 1000.0
18 15.08 штиль 0 4000 м дымка 3/3 1200 м
[Sc diur, vesp]
+28.7 +28.7 100 +49 +49 опасность
перегрева
1000.5 1001.0
21 15.08 штиль 0 2000 м дымка 3/3 1200 м
[Sc diur, vesp]
+28.0 +28.0 100 +46 +46 опасность
перегрева
1000.1 1000.0
00 16.08 штиль 0 2000 м дымка 3/3 1200 м
[Sc diur, vesp]
+27.2 +27.2 100 +43 +43 опасность
перегрева
1000.2 1000.0
03 16.08 ЮЗ 2 2000 м дымка 3/3 1200 м
[Sc diur, vesp]
+30.3 +30.3 100 +57 +61 опасность
перегрева
1001.3 1001.0 +26.9 +33.4
06 16.08 нст 1 4000 м дымка 4/4 1200 м
[Sc diur, vesp]
+33.0 +26.6 69 +50 +63 опасность
перегрева
1001.4 1001.0
09 16.08 З 3 4000 м 4/4 1200 м
[St Ac lent]
+34.0 +25.3 61 +48 +57 опасность
перегрева
999.8 1000.0
12 16.08 З 2 4000 м 3/3 1200 м
[Sc diur, vesp]
+33.6 +26.3 66 +50 +52 опасность
перегрева
998.0 998.0 +35.0
15 16.08 штиль 0 4000 м дымка 3/3 1200 м
[Sc diur, vesp]
+32.0 +26.4 72 +48 +48 опасность
перегрева
998.0 998.0
18 16.08 штиль 0 4000 м дымка 3/3 1200 м
[Sc diur, vesp]
+29.1 +29.1 100 +51 +51 опасность
перегрева
998.0 998.0
21 16.08 штиль 0 2000 м дымка 3/3 1200 м
[Sc diur, vesp]
+28.0 +28.0 100 +46 +46 опасность
перегрева
997.7 998.0
00 17.08 штиль 0 2000 м дымка 3/3 1200 м
[Sc diur, vesp]
+27.6 +27.6 100 +45 +45 опасность
перегрева
998.1 998.0
03 17.08 нст 1 4000 м дымка ясно +30.8 +30.8 100 +60 +67 опасность
перегрева
998.9 999.0 +26.7 +35.0
06 17.08 штиль 0 4000 м мгла 3/3 1200 м
[Sc diur, vesp]
+34.4 +26.4 63 +51 +68 опасность
перегрева
999.0 999.0
09 17.08 нст 2 4000 м 8/4 1200 м
[Sc diur, vesp Ac As]
+34.8 +28.0 68 +56 +61 опасность
перегрева
998.4 998.0
12 17.08 ЮЗ 2 4000 м 8/4 1200 м
[Sc diur, vesp Ac trans]
+34.8 +27.1 64 +53 +54 опасность
перегрева
997.1 997.0 +35.7
15 17.08 штиль 0 4000 м дымка 6/3 1200 м
[Sc diur, vesp Ac trans]
+31.7 +31.7 100 +65 +65 опасность
перегрева
997.7 998.0
18 17.08 штиль 0 4000 м дымка 5/1 1200 м
[Sc diur, vesp Ac trans]
+30.9 +30.9 100 +60 +60 опасность
перегрева
998.2 998.0
21 17.08 нст 1 2000 м дымка 5/1 1200 м
[Sc diur, vesp Ac trans]
+29.2 +29.2 100 +52 +52 опасность
перегрева
998.3 998.0
00 18.08 штиль 0 2000 м дымка 5/1 1200 м
[Sc diur, vesp Ac trans]
+28.3 +28.3 100 +48 +48 опасность
перегрева
999.1 999.0
03 18.08 нст 1 4000 м дымка 3/0
[Ac trans]
+30.4 +30.4 100 +58 +63 опасность
перегрева
1000.4 1000.0 +27.8 +35.7
06 18.08 нст 2 4000 м 3/0
[Ac trans]
+34.4 +26.1 62 +50 +67 опасность
перегрева
1000.6 1001.0

 

Местоположение метеостанции Amritsar (Punjab, Индия): широта 31.63 долгота 74.87 высота над уровнем моря 234 м.

В архиве по умолчанию представлена погода в Amritsar за последнюю неделю. Архивные данные за месяц целиком и за предыдущие месяцы, начиная с января 2011 года, Вы можете получить, выбрав интересующий диапазон дат из раскрывающегося списка и нажав кнопку "Ввод!".

Внимание! Время в таблицах - всемирное. Для получения местного времени необходимо прибавить поправку, которая в Amritsar равна 5.5 ч.

Смотрите также архив погоды в соседних городах и на ближайших метеорологических станциях:

Погода в Lahore City (Пакистан) (52 км)
Погода в Sialkot (Пакистан) (102 км)
Погода в Jammu (Jammu and Kashmir, Индия) (116 км)
Погода в Ludhiana (Punjab, Индия) (132 км)
Погода в Una (Himachal Pradesh, Индия) (134 км)
Погода в Kangra (Himachal Pradesh, Индия) (142 км)
Погода в Katra (Jammu and Kashmir, Индия) (151 км)
Погода в Dharamsala (Himachal Pradesh, Индия) (159 км)
Погода в Batote (Jammu and Kashmir, Индия) (169 км)
Погода в Faisal Abad (Пакистан) (169 км)

Пояснения к столбцам:

Ветер - указаны скорость ветра в м/с - средняя за 10 мин, порывы в срок и между сроками (в фигурных скобках) и направление, откуда дует ветер: С - северный, СВ - северо-восточный, В - восточный, ЮВ - юго-восточный, Ю - южный, ЮЗ - юго-западный, З - западный, СЗ - северо-западный.
Видимость - горизонтальная дальность видимости в метрах или километрах. При видимости от 1 до 10 км при отсутствии осадков обычно наблюдается дымка, при ухудшении видимости до 1 км и менее - туман. В сухую погоду видимость может ухудшаться дымом, пылью или мглою.
Явления - указаны атмосферные явления, наблюдавшиеся в срок или в последний час перед сроком; фигурными скобками обозначены явления, наблюдавшиеся между сроками (за 1-3 часа до срока); квадратными скобками обозначены град или гололедные отложения с указанием их диаметра в мм.
Облачность - указаны через наклонную черту общая и нижняя облачность в баллах и высота нижней границы облаков в метрах; квадратными скобками обозначены формы облаков: Ci - перистые, Cs - перисто-слоистые, Cc - перисто-кучевые, Ac - высококучевые, As - высокослоистые, Sc - слоисто-кучевые, Ns - слоисто-дождевые, Cu - кучевые, Cb - кучево-дождевые. Подробнее классификацию облаков см. в Атласе облаков (PDF).
T - Температура воздуха - температура, измеренная на высоте 2 м над землей.
Td - Температура точки росы - температура, при понижении до которой содержащийся в воздухе водяной пар достигнет насыщения.
f - Относительная влажность воздуха - влажноcть воздуха, измеренная на высоте 2 м над землей.
Te - Эффективная температура - температура, которую ощущает одетый по сезону человек в тени. Характеристика душности погоды. При расчете учитывается влияние влажности воздуха и скорости ветра на теплоощущения человека.
Tes - Эффективная температура на солнце - температура, которую ощущает человек, с поправкой на солнечный нагрев. Характеристика знойности погоды. Зависит от высоты солнца над горизонтом, облачности и скорости ветра. Ночью, в пасмурную погоду, а также при ветре 12 м/с и более поправка равна нулю.
P - Атмосферное давление - приведенное к уровню моря атмосферное давление.
Po - Атмосферное давление - измеренное на уровне метеостанции атмосферное давление.
Tmin - Минимальная температура - минимум температуры воздуха на высоте 2 м над землей.
Tmax - Максимальная температура - максимум температуры воздуха на высоте 2 м над землей.
R - Количество осадков - Количество выпавших осадков за период времени, мм. При наведении курсора мыши на число - период времени, за который выпало указанное количество осадков.
R24 - Количество осадков - Количество выпавших осадков за 24 часа, мм.
S - Снежный покров - Высота снежного покрова, см. При наведении курсора мыши на число - состояние снежного покрова и степень покрытия местности в баллах.